Weather History for KLNL - January, 2012

Change the Weather History Date:

Tuesday, January 17, 2012

  Actual Average (KEGV) Record (KEGV)
Temperature  
Mean Temperature 16 °F -  
Max Temperature 23 °F 16 °F 37 °F (1999)
Min Temperature 10 °F -1 °F -20 °F (1971)
Degree Days  
Heating Degree Days 48    
Moisture  
Dew Point 10 °F    
Average Humidity 81    
Maximum Humidity 93    
Minimum Humidity 73    
Precipitation  
Precipitation 0.00 in - - ()
Sea Level Pressure  
Sea Level Pressure 29.91 in    
Wind  
Wind Speed 10 mph (North)    
Max Wind Speed 17 mph    
Max Gust Speed 25 mph    
Visibility 6 miles    
Events Snow    
Averages and records for this station are not official NWS values.
T = Trace of Precipitation, MM = Missing Value Source: NWS Daily Summary

Daily Weather History Graph

Daily Weather History Graph

Search for Another Location

Airport or City:

Trip Planner

Search our weather history database for the weather conditions in past years. The results will help you decide how hot, cold, wet, or windy it might be!

Date:

Astronomy

Jan. 17, 2012 Rise Set
Actual Time 7:34 AM CST 4:39 PM CST
Civil Twilight 7:00 AM CST 5:13 PM CST
Nautical Twilight 6:23 AM CST 5:50 PM CST
Astronomical Twilight 5:48 AM CST 6:26 PM CST
Moon 1:51 AM CST (1/17) 11:33 AM CST (1/17)
Length of Visible Light 10h 12m
Length of Day
9h 05m
Waning Crescent, 35% of the Moon is Illuminated
Jan 17
Waning Crescent
Jan 23
New
Jan 30
First Quarter
Feb 7
Full
Feb 14
Last Quarter

Hourly Weather History & Observations

Time (CST) Temp. Windchill Dew Point Humidity Pressure Visibility Wind Dir Wind Speed Gust Speed Precip Events Conditions
12:15 AM 23.0 °F 14.7 °F 17.6 °F 80% 29.85 in 10.0 mi North 6.9 mph - N/A   Overcast
12:35 AM 23.0 °F 13.1 °F 17.6 °F 80% 29.85 in 10.0 mi North 9.2 mph - N/A   Overcast
12:55 AM 23.0 °F 14.7 °F 17.6 °F 80% 29.85 in 10.0 mi North 6.9 mph 11.5 mph N/A   Overcast
1:15 AM 21.2 °F 10.1 °F 17.6 °F 86% 29.85 in 10.0 mi North 10.4 mph - N/A   Overcast
1:35 AM 21.2 °F 10.1 °F 17.6 °F 86% 29.85 in 10.0 mi North 10.4 mph - N/A   Overcast
2:15 AM 21.2 °F 11.7 °F 17.6 °F 86% 29.85 in 10.0 mi North 8.1 mph 16.1 mph N/A   Overcast
2:35 AM 21.2 °F 9.5 °F 15.8 °F 80% 29.84 in 10.0 mi NNE 11.5 mph 17.3 mph N/A   Overcast
2:55 AM 19.4 °F 6.0 °F 15.8 °F 86% 29.83 in 10.0 mi NNE 13.8 mph 20.7 mph N/A   Overcast
3:15 AM 19.4 °F 7.2 °F 15.8 °F 86% 29.81 in 10.0 mi NNE 11.5 mph - N/A   Overcast
3:35 AM 19.4 °F 7.2 °F 15.8 °F 86% 29.81 in 7.0 mi North 11.5 mph 19.6 mph N/A   Overcast
3:55 AM 17.6 °F 5.0 °F 14.0 °F 86% 29.81 in 10.0 mi NNE 11.5 mph 18.4 mph N/A   Overcast
4:15 AM 17.6 °F 5.7 °F 14.0 °F 86% 29.83 in 10.0 mi North 10.4 mph - N/A Snow Light Snow
4:35 AM 17.6 °F 5.0 °F 12.2 °F 79% 29.83 in 10.0 mi North 11.5 mph 21.9 mph N/A Snow Light Snow
4:55 AM 17.6 °F 5.0 °F 14.0 °F 86% 29.83 in 10.0 mi North 11.5 mph 17.3 mph N/A Snow Light Snow
5:15 AM 17.6 °F 5.0 °F 14.0 °F 86% 29.85 in 4.0 mi North 11.5 mph - N/A Snow Light Snow
5:35 AM 17.6 °F 9.3 °F 14.0 °F 86% 29.86 in 2.5 mi NE 5.8 mph - N/A Snow Light Snow
5:55 AM 15.8 °F 6.1 °F 14.0 °F 93% 29.85 in 1.8 mi NE 6.9 mph - N/A Snow Light Snow
7:15 AM 15.8 °F 6.1 °F 12.2 °F 86% 29.86 in 3.0 mi North 6.9 mph - N/A Snow Light Snow
7:35 AM 15.8 °F 5.1 °F 10.4 °F 79% 29.86 in 4.0 mi North 8.1 mph 17.3 mph N/A Snow Light Snow
7:55 AM 15.8 °F 4.2 °F 10.4 °F 79% 29.86 in 2.0 mi North 9.2 mph - N/A Snow Light Snow
8:15 AM 14.0 °F 0.5 °F 10.4 °F 86% 29.86 in 1.8 mi North 11.5 mph - N/A Snow Light Snow
8:35 AM 14.0 °F 2.9 °F 10.4 °F 86% 29.87 in 1.8 mi North 8.1 mph 16.1 mph N/A Snow Light Snow
8:55 AM 14.0 °F 1.2 °F 8.6 °F 79% 29.88 in 2.0 mi North 10.4 mph 19.6 mph N/A Snow Light Snow
9:15 AM 14.0 °F 5.1 °F 10.4 °F 86% 29.88 in 2.0 mi North 5.8 mph - N/A Snow Light Snow
9:35 AM 14.0 °F -0.2 °F 8.6 °F 79% 29.89 in 2.0 mi North 12.7 mph 19.6 mph N/A Snow Light Snow
9:55 AM 14.0 °F 0.5 °F 8.6 °F 79% 29.90 in 2.0 mi North 11.5 mph 20.7 mph N/A Snow Light Snow
10:15 AM 14.0 °F -0.2 °F 8.6 °F 79% 29.90 in 2.0 mi North 12.7 mph 17.3 mph N/A Snow Light Snow
10:35 AM 14.0 °F -0.8 °F 8.6 °F 79% 29.91 in 2.0 mi North 13.8 mph - N/A Snow Light Snow
10:55 AM 14.0 °F -0.8 °F 8.6 °F 79% 29.90 in 3.0 mi North 13.8 mph 20.7 mph N/A Snow Light Snow
11:15 AM 14.0 °F 1.2 °F 6.8 °F 73% 29.90 in 2.0 mi North 10.4 mph 17.3 mph N/A Snow Light Snow
11:35 AM 14.0 °F 0.5 °F 6.8 °F 73% 29.90 in 4.0 mi North 11.5 mph 18.4 mph N/A Snow Light Snow
11:55 AM 14.0 °F -0.8 °F 6.8 °F 73% 29.90 in 2.5 mi North 13.8 mph 20.7 mph N/A Snow Light Snow
12:15 PM 14.0 °F 2.0 °F 8.6 °F 79% 29.89 in 1.2 mi North 9.2 mph - N/A Snow Light Snow
12:35 PM 14.0 °F 2.9 °F 8.6 °F 79% 29.89 in 1.5 mi North 8.1 mph - N/A Snow Light Snow
12:55 PM 14.0 °F 0.5 °F 6.8 °F 73% 29.89 in 5.0 mi North 11.5 mph 19.6 mph N/A Snow Light Snow
1:15 PM 14.0 °F -2.5 °F 6.8 °F 73% 29.89 in 5.0 mi North 17.3 mph 23.0 mph N/A Snow Light Snow
1:35 PM 12.2 °F -3.1 °F 6.8 °F 79% 29.90 in 4.0 mi NNW 13.8 mph 23.0 mph N/A Snow Light Snow
1:55 PM 12.2 °F -1.0 °F 6.8 °F 79% 29.90 in 3.0 mi NNW 10.4 mph 21.9 mph N/A Snow Light Snow
2:15 PM 12.2 °F -3.7 °F 6.8 °F 79% 29.90 in 2.5 mi North 15.0 mph 18.4 mph N/A Snow Light Snow
2:35 PM 12.2 °F -2.5 °F 6.8 °F 79% 29.91 in 5.0 mi North 12.7 mph - N/A Snow Light Snow
2:55 PM 12.2 °F -1.0 °F 6.8 °F 79% 29.92 in 5.0 mi NNW 10.4 mph 17.3 mph N/A Snow Light Snow
3:15 PM 12.2 °F -0.2 °F 6.8 °F 79% 29.93 in 3.0 mi NW 9.2 mph 16.1 mph N/A Snow Light Snow
3:35 PM 12.2 °F -1.8 °F 6.8 °F 79% 29.95 in 0.8 mi NW 11.5 mph 17.3 mph N/A Snow Light Snow
4:15 PM 10.4 °F -4.1 °F 5.0 °F 79% 29.97 in 7.0 mi NW 11.5 mph 18.4 mph N/A Snow Light Snow
4:35 PM 10.4 °F -6.0 °F 5.0 °F 79% 29.98 in 3.0 mi NNW 15.0 mph 25.3 mph N/A   Haze
4:55 PM 10.4 °F -2.4 °F 5.0 °F 79% 29.99 in 5.0 mi NW 9.2 mph - N/A Snow Light Snow
5:15 PM 10.4 °F -5.4 °F 5.0 °F 79% 29.99 in 10.0 mi NNW 13.8 mph 18.4 mph N/A   Overcast
5:35 PM 10.4 °F -0.4 °F 5.0 °F 79% 30.00 in 3.0 mi WNW 6.9 mph - N/A Snow Light Snow
5:55 PM 10.4 °F -2.4 °F 5.0 °F 79% 30.01 in 7.0 mi NW 9.2 mph - N/A Snow Light Snow
6:15 PM 10.4 °F -3.3 °F 5.0 °F 79% 30.02 in 7.0 mi NW 10.4 mph 17.3 mph N/A   Overcast
6:35 PM 10.4 °F -5.4 °F 5.0 °F 79% 30.03 in 7.0 mi NW 13.8 mph 21.9 mph N/A Snow Light Snow
6:55 PM 10.4 °F -5.4 °F 5.0 °F 79% 30.03 in 7.0 mi NNW 13.8 mph 20.7 mph N/A Snow Light Snow
7:15 PM 10.4 °F -2.4 °F 5.0 °F 79% 30.04 in 10.0 mi NW 9.2 mph - N/A   Overcast
7:35 PM 10.4 °F -4.8 °F 5.0 °F 79% 30.05 in 10.0 mi NW 12.7 mph 18.4 mph N/A   Overcast
7:55 PM 10.4 °F -1.5 °F 5.0 °F 79% 30.05 in 10.0 mi NNW 8.1 mph 21.9 mph N/A Snow Light Snow
8:15 PM 10.4 °F -2.4 °F 5.0 °F 79% 30.06 in 10.0 mi NW 9.2 mph - N/A   Overcast
8:35 PM 10.4 °F -0.4 °F 5.0 °F 79% 30.05 in 7.0 mi WNW 6.9 mph - N/A Snow Light Snow
8:55 PM 10.4 °F 2.2 °F 5.0 °F 79% 30.06 in 7.0 mi West 4.6 mph - N/A Snow Light Snow
9:15 PM 10.4 °F 2.2 °F 5.0 °F 79% 30.06 in 7.0 mi WNW 4.6 mph - N/A Snow Light Snow
9:35 PM 10.4 °F 4.0 °F 5.0 °F 79% 30.06 in 10.0 mi WNW 3.5 mph - N/A Snow Light Snow
9:55 PM 10.4 °F 2.2 °F 5.0 °F 79% 30.06 in 10.0 mi WNW 4.6 mph - N/A Snow Light Snow
10:15 PM 10.4 °F 4.0 °F 5.0 °F 79% 30.07 in 10.0 mi WNW 3.5 mph - N/A   Overcast
10:35 PM 10.4 °F 4.0 °F 5.0 °F 79% 30.07 in 10.0 mi West 3.5 mph - N/A Snow Light Snow
10:55 PM 10.4 °F 0.8 °F 5.0 °F 79% 30.07 in 7.0 mi WNW 5.8 mph - N/A Snow Light Snow
11:15 PM 10.4 °F - 5.0 °F 79% 30.07 in 7.0 mi Calm Calm - N/A Snow Light Snow
11:35 PM 10.4 °F 2.2 °F 5.0 °F 79% 30.07 in 10.0 mi WNW 4.6 mph - N/A Snow Light Snow
11:55 PM 8.6 °F -1.3 °F 5.0 °F 85% 30.07 in 10.0 mi WNW 5.8 mph - N/A   Overcast